Weather History for Mammoth, CA

Change the Weather History Date:

Sunday, September 1, 2013

  Actual Average Record
Temperature  
Mean Temperature 62 °F -  
Max Temperature 80 °F 71 °F 95 °F (2006)
Min Temperature 44 °F 56 °F 32 °F (2011)
Degree Days  
Heating Degree Days 3    
Growing Degree Days 12 (Base 50)    
Moisture  
Dew Point 46 °F    
Average Humidity 54    
Maximum Humidity 87    
Minimum Humidity 28    
Precipitation  
Precipitation 0.00 in - - ()
Sea Level Pressure  
Sea Level Pressure 30.23 in    
Wind  
Wind Speed 4 mph (WSW)    
Max Wind Speed 21 mph    
Max Gust Speed 31 mph    
Visibility 10 miles    
Events      
Averages and records for this station are not official NWS values.
T = Trace of Precipitation, MM = Missing Value Source: NWS Daily Summary

Daily Weather History Graph

Daily Weather History Graph

Search for Another Location

Airport:

Trip Planner

Search our weather history database for the weather conditions in past years. The results will help you decide how hot, cold, wet, or windy it might be!

Date:

Astronomy

Sep. 01, 2013 Rise Set
Actual Time 6:25 AM PDT 7:23 PM PDT
Civil Twilight 5:59 AM PDT 7:50 PM PDT
Nautical Twilight 5:27 AM PDT 8:22 PM PDT
Astronomical Twilight 4:54 AM PDT 8:55 PM PDT
Moon 2:54 AM PDT (9/1) 5:02 PM PDT (9/1)
Length of Visible Light 13h 51m
Length of Day
12h 58m
Waning Crescent, 13% of the Moon is Illuminated
Sep 1
Waning Crescent
Sep 5
New
Sep 12
First Quarter
Sep 19
Full
Sep 26
Last Quarter

Hourly Weather History & Observations

Time (PDT) Temp. Windchill Dew Point Humidity Pressure Visibility Wind Dir Wind Speed Gust Speed Precip Events Conditions
12:15 AM 55.4 °F - 42.8 °F 63% 30.29 in 7.0 mi Calm Calm - N/A   Clear
12:35 AM 53.6 °F - 41.0 °F 62% 30.28 in 7.0 mi NNW 3.5 mph - N/A   Clear
12:55 AM 53.6 °F - 42.8 °F 67% 30.28 in 7.0 mi Calm Calm - N/A   Clear
1:15 AM 53.6 °F - 42.8 °F 67% 30.28 in 7.0 mi Calm Calm - N/A   Clear
1:35 AM 51.8 °F - 42.8 °F 71% 30.28 in 7.0 mi Calm Calm - N/A   Clear
1:55 AM 50.0 °F - 41.0 °F 71% 30.27 in 7.0 mi NW 4.6 mph - N/A   Clear
2:15 AM 50.0 °F - 42.8 °F 76% 30.26 in 7.0 mi Calm Calm - N/A   Clear
2:35 AM 53.6 °F - 44.6 °F 72% 30.25 in 10.0 mi Calm Calm - N/A   Scattered Clouds
2:55 AM 53.6 °F - 46.4 °F 77% 30.25 in 10.0 mi WNW 3.5 mph - N/A   Scattered Clouds
3:15 AM 51.8 °F - 44.6 °F 76% 30.25 in 10.0 mi Calm Calm - N/A   Clear
3:35 AM 51.8 °F - 44.6 °F 76% 30.24 in 10.0 mi Calm Calm - N/A   Clear
3:55 AM 50.0 °F - 44.6 °F 82% 30.24 in 10.0 mi Calm Calm - N/A   Clear
4:15 AM 50.0 °F - 42.8 °F 76% 30.24 in 10.0 mi Calm Calm - N/A   Clear
4:35 AM 48.2 °F - 42.8 °F 82% 30.23 in 10.0 mi WNW 3.5 mph - N/A   Clear
4:55 AM 46.4 °F - 42.8 °F 87% 30.23 in 10.0 mi Calm Calm - N/A   Clear
5:15 AM 48.2 °F - 42.8 °F 82% 30.23 in 10.0 mi NNW 3.5 mph - N/A   Clear
5:35 AM 44.6 °F 43.1 °F 41.0 °F 87% 30.24 in 10.0 mi NNW 3.5 mph - N/A   Clear
5:55 AM 46.4 °F - 42.8 °F 87% 30.24 in 10.0 mi Calm Calm - N/A   Clear
6:15 AM 46.4 °F - 42.8 °F 87% 30.24 in 10.0 mi Calm Calm - N/A   Clear
6:35 AM 44.6 °F 41.4 °F 39.2 °F 81% 30.25 in 7.0 mi WNW 5.8 mph - N/A   Clear
6:55 AM 46.4 °F - 41.0 °F 81% 30.25 in 7.0 mi Calm Calm - N/A   Clear
7:15 AM 48.2 °F - 42.8 °F 82% 30.26 in 10.0 mi Calm Calm - N/A   Clear
7:35 AM 51.8 °F - 46.4 °F 82% 30.26 in 10.0 mi Calm Calm - N/A   Clear
7:55 AM 57.2 °F - 46.4 °F 67% 30.27 in 10.0 mi Calm Calm - N/A   Clear
8:15 AM 59.0 °F - 48.2 °F 67% 30.27 in 10.0 mi Calm Calm - N/A   Clear
8:35 AM 60.8 °F - 48.2 °F 63% 30.27 in 10.0 mi Calm Calm - N/A   Clear
8:55 AM 64.4 °F - 50.0 °F 59% 30.27 in 10.0 mi Calm Calm - N/A   Clear
9:15 AM 68.0 °F - 50.0 °F 52% 30.27 in 10.0 mi SSE 6.9 mph - N/A   Clear
9:35 AM 68.0 °F - 50.0 °F 52% 30.27 in 10.0 mi ESE 4.6 mph - N/A   Clear
9:55 AM 69.8 °F - 48.2 °F 46% 30.26 in 10.0 mi Calm Calm - N/A   Clear
10:15 AM 71.6 °F - 48.2 °F 43% 30.26 in 10.0 mi Calm Calm - N/A   Clear
10:35 AM 73.4 °F - 50.0 °F 44% 30.26 in 10.0 mi ESE 5.8 mph - N/A   Clear
10:55 AM 75.2 °F - 48.2 °F 38% 30.25 in 10.0 mi ESE 6.9 mph - N/A   Scattered Clouds
11:15 AM 75.2 °F - 48.2 °F 38% 30.25 in 10.0 mi SE 9.2 mph - N/A   Mostly Cloudy
11:35 AM 75.2 °F - 48.2 °F 38% 30.24 in 10.0 mi East 5.8 mph - N/A   Overcast
11:55 AM 77.0 °F - 48.2 °F 36% 30.24 in 10.0 mi ESE 8.1 mph - N/A   Mostly Cloudy
12:15 PM 78.8 °F - 50.0 °F 36% 30.23 in 10.0 mi ESE 10.4 mph - N/A   Scattered Clouds
12:35 PM 78.8 °F - 48.2 °F 34% 30.22 in 10.0 mi ESE 10.4 mph 16.1 mph N/A   Scattered Clouds
12:55 PM 78.8 °F - 48.2 °F 34% 30.22 in 10.0 mi ESE 11.5 mph 19.6 mph N/A   Scattered Clouds
1:15 PM 77.0 °F - 48.2 °F 36% 30.22 in 10.0 mi ESE 9.2 mph 16.1 mph N/A   Mostly Cloudy
1:35 PM 78.8 °F - 48.2 °F 34% 30.21 in 10.0 mi ESE 12.7 mph 17.3 mph N/A   Mostly Cloudy
1:55 PM 80.6 °F - 48.2 °F 32% 30.20 in 10.0 mi ESE 10.4 mph 18.4 mph N/A   Scattered Clouds
2:15 PM 80.6 °F - 48.2 °F 32% 30.20 in 10.0 mi ESE 11.5 mph 16.1 mph N/A   Scattered Clouds
2:35 PM 78.8 °F - 46.4 °F 32% 30.19 in 10.0 mi ESE 8.1 mph - N/A   Mostly Cloudy
2:55 PM 80.6 °F - 46.4 °F 30% 30.19 in 10.0 mi ESE 6.9 mph - N/A   Mostly Cloudy
3:15 PM 80.6 °F - 46.4 °F 30% 30.18 in 10.0 mi ESE 9.2 mph 19.6 mph N/A   Mostly Cloudy
3:35 PM 77.0 °F - 46.4 °F 34% 30.17 in 10.0 mi East 9.2 mph - N/A   Mostly Cloudy
3:55 PM 77.0 °F - 46.4 °F 34% 30.16 in 10.0 mi ESE 5.8 mph - N/A   Overcast
4:15 PM 80.6 °F - 46.4 °F 30% 30.16 in 10.0 mi NNE 4.6 mph - N/A   Overcast
4:35 PM 78.8 °F - 42.8 °F 28% 30.16 in 10.0 mi WNW 17.3 mph 25.3 mph N/A   Overcast
4:55 PM 78.8 °F - 42.8 °F 28% 30.16 in 10.0 mi West 17.3 mph 26.5 mph N/A   Overcast
5:15 PM 75.2 °F - 44.6 °F 34% 30.16 in 10.0 mi WNW 18.4 mph 28.8 mph N/A   Mostly Cloudy
5:35 PM 73.4 °F - 44.6 °F 36% 30.16 in 10.0 mi West 17.3 mph 26.5 mph N/A   Mostly Cloudy
5:55 PM 71.6 °F - 46.4 °F 41% 30.17 in 10.0 mi WNW 15.0 mph 25.3 mph N/A   Scattered Clouds
6:15 PM 69.8 °F - 44.6 °F 40% 30.17 in 10.0 mi WSW 10.4 mph 17.3 mph N/A   Clear
6:35 PM 69.8 °F - 46.4 °F 43% 30.18 in 10.0 mi WNW 17.3 mph 31.1 mph N/A   Clear
6:55 PM 71.6 °F - 44.6 °F 38% 30.19 in 10.0 mi WNW 17.3 mph 28.8 mph N/A   Scattered Clouds
7:15 PM 68.0 °F - 46.4 °F 46% 30.19 in 10.0 mi WNW 15.0 mph 27.6 mph N/A   Mostly Cloudy
7:35 PM 66.2 °F - 46.4 °F 49% 30.20 in 10.0 mi WNW 20.7 mph 29.9 mph N/A   Overcast
7:55 PM 66.2 °F - 46.4 °F 49% 30.20 in 10.0 mi West 12.7 mph 26.5 mph N/A   Mostly Cloudy
8:15 PM 68.0 °F - 42.8 °F 40% 30.20 in 10.0 mi WSW 6.9 mph - N/A   Scattered Clouds
8:35 PM 64.4 °F - 44.6 °F 49% 30.21 in 10.0 mi West 11.5 mph 23.0 mph N/A   Mostly Cloudy
8:55 PM 64.4 °F - 46.4 °F 52% 30.22 in 10.0 mi WSW 10.4 mph - N/A   Mostly Cloudy
9:15 PM 64.4 °F - 46.4 °F 52% 30.22 in 10.0 mi West 12.7 mph 16.1 mph N/A   Mostly Cloudy
9:35 PM 62.6 °F - 46.4 °F 55% 30.23 in 10.0 mi Calm Calm - N/A   Overcast
9:55 PM 62.6 °F - 46.4 °F 55% 30.23 in 10.0 mi West 6.9 mph - N/A   Overcast
10:15 PM 62.6 °F - 44.6 °F 52% 30.24 in 10.0 mi SW 4.6 mph - N/A   Overcast
10:35 PM 62.6 °F - 44.6 °F 52% 30.24 in 10.0 mi West 3.5 mph - N/A   Overcast
10:55 PM 62.6 °F - 44.6 °F 52% 30.24 in 10.0 mi WNW 5.8 mph - N/A   Overcast
11:15 PM 60.8 °F - 44.6 °F 55% 30.24 in 10.0 mi East 5.8 mph - N/A   Mostly Cloudy
11:35 PM 60.8 °F - 46.4 °F 59% 30.23 in 10.0 mi ESE 3.5 mph - N/A   Mostly Cloudy
11:55 PM 60.8 °F - 46.4 °F 59% 30.24 in 10.0 mi Calm Calm - N/A   Mostly Cloudy